Regional Weather Roundup
Issued by NWS

Home | Current Version | Previous Version | Graphics & Text | Print | Product List | Glossary On
Versions: 1 2 3 4 5 6 7 8 9 10 11 12 13 14 15 16 17 18 19 20 21 22 23 24 25 26 27 28 29 30 31 32 33 34 35 36 37 38 39 40 41 42 43 44 45 46 47 48 49 50
000
ASUS45 KPSR 061610
RWRAZ

ARIZONA HOURLY REGIONAL WEATHER ROUNDUP
NATIONAL WEATHER SERVICE PHOENIX AZ
900 AM MST MON JUL 06 2015

NOTE: FAIR INDICATES FEW OR NO CLOUDS BELOW 12,000 FEET WITH NO
SIGNIFICANT WEATHER AND/OR OBSTRUCTIONS TO VISIBILITY.

AZZ001>003-036-061700-
NORTHWEST ARIZONA

CITY           SKY/WX    TMP DP  RH WIND       PRES   REMARKS
BULLHEAD CITY  MOSUNNY   90  61  37 S3        29.96S
KINGMAN        MOSUNNY   84  53  34 SW17      30.13R
$$

AZZ004>008-015-016-018-061700-
NORTH CENTRAL ARIZONA

CITY           SKY/WX    TMP DP  RH WIND       PRES   REMARKS
GRAND CANYON   CLOUDY    68  50  52 VRB5      30.32R
WILLIAMS       MOSUNNY   68  50  52 CALM      30.41R
PRESCOTT       SUNNY     72  56  57 CALM      30.24S
FLAGSTAFF      MOSUNNY   68  47  46 W8        30.35R
PAYSON         MOSUNNY   75  55  50 S5        30.23S
PAGE           CLOUDY    80  53  39 N7        30.14R
$$

AZZ009>014-017-061700-
NORTHEAST ARIZONA

CITY           SKY/WX    TMP DP  RH WIND       PRES   REMARKS
WINSLOW        MOSUNNY   78  55  44 CALM      30.20S
SAINT JOHNS    MOSUNNY   77  51  40 NW13      30.24R
WINDOW ROCK    SUNNY     71  56  58 S5        30.28
SHOW LOW       PTSUNNY   66  54  63 S8        30.31R
$$

AZZ023-061700-
GREATER PHOENIX AREA

CITY           SKY/WX    TMP DP  RH WIND       PRES   REMARKS
PHOENIX        MOSUNNY   87  67  51 E7        29.97R
BUCKEYE        SUNNY     86  68  54 N5        29.99R
GLENDALE       MOSUNNY   84  70  61 N5        29.99S
LUKE AFB       SUNNY     86  66  51 VRB5      29.97S
DEER VALLEY    SUNNY     84  66  54 CALM      29.99R
SCOTTSDALE     SUNNY     85  65  51 VRB3      30.01R
MESA-GATEWAY   MOSUNNY   86  66  51 S5        30.02R
CHANDLER       MOSUNNY   86  68  54 S5        29.99R
$$

AZZ027-028-061700-
SOUTHWEST MARICOPA COUNTY AND PINAL COUNTY

CITY           SKY/WX    TMP DP  RH WIND       PRES   REMARKS
CASA GRANDE    SUNNY     84  68  58 CALM      29.99R
GILA BEND      FAIR      93  63  35 S7        29.95S
$$

AZZ503-504-507>509-061700-
SOUTHEAST ARIZONA

CITY           SKY/WX    TMP DP  RH WIND       PRES   REMARKS
TUCSON         MOSUNNY   85  63  47 N5        30.10F
DAVIS-MONTHAN  SUNNY     80  65  59 W3        30.09S
RYAN FIELD     SUNNY     82  66  57 CALM      30.09S
NOGALES        SUNNY     79  62  56 CALM      30.17F
SIERRA VISTA   SUNNY     77  60  54 NW9       30.22F
DOUGLAS        MOSUNNY   77  62  59 VRB6      30.17F
SAFFORD        SUNNY     82  63  52 NW14      30.07F
$$

AZZ020-021-025-026-031-061700-
SOUTHWEST ARIZONA

CITY           SKY/WX    TMP DP  RH WIND       PRES   REMARKS
YUMA           SUNNY     95  56  26 S20       29.90F
$$

CAZ031-033-041-043-047-048-061-061700-
SOUTHERN CALIFORNIA

CITY           SKY/WX    TMP DP  RH WIND       PRES   REMARKS
DOWNTOWN L.A.  CLOUDY    66  59  78 CALM      30.05R
L.A. AIRPORT   CLOUDY    64  60  87 SW7       30.07R
SAN DIEGO      CLOUDY    67  60  78 W6        30.07R
BURBANK        CLOUDY    65  58  78 S6        30.05R
ONTARIO        CLOUDY    67  59  75 SW3       30.05R HAZE
RIVERSIDE      CLOUDY    67  59  75 S5        30.06R
PALM SPRINGS   SUNNY     88  56  33 N7        29.95S
EL CENTRO NAS  MOSUNNY   88  68  51 SE7       29.91S
IMPERIAL       SUNNY     89  69  51 S9        29.89S
BLYTHE         SUNNY     94  59  31 S8        29.93R
NEEDLES        SUNNY     92  60  34 E6        29.96S
$$

NVZ020-UTZ003-061700-
SOUTHERN NEVADA-UTAH

CITY           SKY/WX    TMP DP  RH WIND       PRES   REMARKS
LAS VEGAS      CLOUDY    87  55  33 SW7       29.98R
SALT LAKE CITY MOSUNNY   81  58  45 CALM      30.11S
$$

NMZ009-TXZ055-061700-
NEW MEXICO-WEST TEXAS

CITY           SKY/WX    TMP DP  RH WIND       PRES   REMARKS
ALBUQUERQUE    PTSUNNY   76  55  48 NW7       30.18F
EL PASO        PTSUNNY   82  58  43 W13       30.08S
$$


........................KEY........................
SKY/WX - SKY CONDITION/WEATHER
TMP    - TEMPERATURE IN FAHRENHEIT
DP     - DEW POINT IN FAHRENHEIT
RH     - RELATIVE HUMIDITY IN PERCENT
WIND   - DIRECTION AND SPEED IN MILES PER HOUR (MPH)
VRB    - VARIABLE WIND DIRECTION
PRES   - MEAN SEA LEVEL PRESSURE IN INCHES OF MERCURY
         F - FALLING PRESSURE   R - RISING PRESSURE
         S - STEADY PRESSURE
VSB    - VISIBILITY IN MILES
HX     - HEAT INDEX IN FAHRENHEIT
WCI    - WIND CHILL INDEX IN FAHRENHEIT
TC     - TEMPERATURE IN CELSIUS WHICH IS ALSO KNOWN AS
         TEMPERATURE IN CENTIGRADE
AFB    - AIR FORCE BASE
         LUKE AFB IS LUKE AIR FORCE BASE
         DAVIS-MONTHAN IS DAVIS-MONTHAN AIR FORCE BASE
NAS    - NAVAL AIR STATION
         EL CENTRO NAS IS EL CENTRO NAVAL AIR STATION
N/A    - NOT AVAILABLE



USA.gov is the U.S. government's official web portal to all federal, state and local government web resources and services.